Location: Ab? ar R?sh Ba?r?
(24.1861°N, 32.8847°E)
Time: 10:36:12
(UTC+00:00)

CZ-2C R/B - Pass Details

Date: 24 October 2021
Orbit: 387 x 574 km, 35.0° (Epoch: 04 December)

Event Time Altitude Azimuth Distance (km) Brightness Sun altitude
Rises 17:08:11 0° 301° (WNW) 2,448 5.5 -26.5°
Reaches altitude 10° 17:10:26 10° 305° (NW) 1,541 4.2 -27.0°
Enters shadow 17:11:31 18° 310° (NW) 1,121 3.4 -27.3°
